Weather in Anissaras

Greece     35°20′04″N   25°22′39″E
temp.,
°C
wind,
m/s
gust,
m/s
humid.,
%
clouds,
%
prec.,
mm/h
press.,
hPa
HPBL,
m
27 february, sat
sat2723:00+8wnw448842 0.0 1023313
02:00+8nw338743 0.0 1022342
05:00+8nw128681 0.0 1021246
08:00+9wnw237944 0.0 1021237
11:00+11wnw337537 0.0 1021541
14:00+13nw436923 0.0 1019614
17:00+11nw22720 0.0 1019414
20:00+8wnw23830 0.0 1019175
28 february, sun
sun2823:00+7w22770 0.0 101966
02:00+7wnw23750 0.0 1019114
05:00+7wnw24917 0.0 1018187
08:00+10wnw348935 0.0 1018355
11:00+13nw456935 0.0 1019678
14:00+13nnw567423 0.0 1019845
17:00+11nw568142 0.1 1019713
20:00+10nnw578938 0.2 1021444
1 march, mon
mon123:00+10nnw578546 0.1 1022683
02:00+8nnw687836 0.2 1022567
05:00+7nnw68710 0.0 1022511
08:00+7nnw79700 0.0 1023958
11:00+9nnw79604 0.0 10231092
14:00+9nnw89595 0.0 10231096
17:00+8nnw79678 0.0 10221045
20:00+6nnw688014 0.0 1023648
2 march, tue
tue223:00+7nnw797961 0.1 10241012
02:00+7nnw8107979 0.3 10241064
05:00+6nnw8117554 0.1 1024933
08:00+7nnw9137862 0.4 10241438
11:00+6n10148093 0.4 10251381
14:00+6nnw9138096 0.7 10251343
17:00+6n101486100 0.6 10241243
20:00+6n91284100 1.4 10251163
3 march, wed
wed323:00+7n91284100 0.6 10261114
02:00+6nnw91286100 0.9 10251027
05:00+6nnw8108593 0.3 1025925
08:00+7nnw8108084 0.4 10251080
11:00+9nnw8106843 0.1 10261090
14:00+10nnw796224 0.1 10251035
17:00+9nnw787512 0.0 1025850
20:00+7nnw467814 0.0 1025370